Find Starlink 37760

NORAD ID: 69222 Int'l Des: 2026-115 Owner: SPXS Country: US Constellation: starlink operational
LEOCIRCULARRETROGRADE

現在のビュー

3D地球を読み込み中...

About Starlink 37760

Starlink 37760 (NORAD 69222) is a starlink constellation satellite (v2 mini) launched May 25, 2026 by SPXS of US. It operates in LEO, CIRCULAR, RETROGRADE orbit with a mass of 575.00 kg.

次回通過

Passes for default location (London). Set your location on the main map for personalized predictions.

高度履歴

Loading altitude history...

軌道要素

1 69222U 26115M 26237.02785937 .00016742 00000-0 51946-3 0 9995
2 69222 97.2844 253.5047 0002338 91.1683 268.9828 15.33460812 15234
Epoch: Aug 25, 2026 • Age: 27 hours

現在のステータス

高度 467.5 km
遠地点 / 近地点 N/A
速度 7.63 km/s
衛星直下点 10.74°N, 41.18°E
打ち上げ日 May 25, 2026
運用期間 0.2 years
タイプ internet

技術仕様

分類 Payload
質量 575.00 kg
乾燥質量 530.00 kg
総質量 575.00 kg
長さ 0.30 m
直径 4.10 m
スパン 29.00 m
形状 Box + pan
製造者 SPXS
バスタイプ Starlink V2MO
フェーズステータス In Orbit
所有者/国 SPXS/US

Most Searched